Tracking 18624 objects as of 26-April-2017
HD Live streaming from Space Station
objects crossing your sky now

COSMOS 1860

Track COSMOS 1860 now!
10-day predictions
COSMOS 1860 is classified as:


NORAD ID: 18122
Int'l Code: 1987-052A
Perigee: 908.6 km
Apogee: 999.5 km
Inclination: 65.0 °
Period: 104.0 minutes
Semi major axis: 7325 km
RCS: 2.8634 m2 (large)
Launch date: June 18, 1987
Source: Commonwealth of Independent States (former USSR) (CIS)
Launch site: TYURATAM MISSILE AND SPACE COMPLEX (TTMTR)
Your satellite tracking list
Your tracking list is empty





NASA's NSSDC Master Catalog

Two Line Element Set (TLE):
1 18122U 87052A   17115.89268263 -.00000091 +00000-0 -18020-5 0  9993
2 18122 065.0116 046.0351 0062053 236.7741 122.7362 13.84804412510408
Source of the keplerian elements: AFSPC